Sierra Vista, AZ

11:25 AM MST on May 26, 2017 (GMT -0700)
Sierra Vista Municipal-Libby Army Air Field

Weather History for KFHU - February, 2012

Change the Weather History Date:

Thursday, February 16, 2012

  Actual Average Record
Temperature  
Mean Temperature 48 °F -  
Max Temperature 55 °F 61 °F 80 °F (2016)
Min Temperature 41 °F 40 °F 20 °F (1990)
Degree Days  
Heating Degree Days 17    
Moisture  
Dew Point 21 °F    
Average Humidity 38    
Maximum Humidity 79    
Minimum Humidity 23    
Precipitation  
Precipitation 0.00 in - - ()
Sea Level Pressure  
Sea Level Pressure 29.91 in    
Wind  
Wind Speed 6 mph (SSW)    
Max Wind Speed 15 mph    
Max Gust Speed 17 mph    
Visibility 10 miles    
Events      
Averages and records for this station are not official NWS values.
T = Trace of Precipitation, MM = Missing Value Source: NWS Daily Summary

Daily Weather History Graph

Daily Weather History Graph

Search for Another Location

Airport or City:

Trip Planner

Search our weather history database for the weather conditions in past years. The results will help you decide how hot, cold, wet, or windy it might be!

Date:

Astronomy

Feb. 16, 2012 Rise Set
Actual Time 7:02 AM MST 6:08 PM MST
Civil Twilight 6:37 AM MST 6:33 PM MST
Nautical Twilight 6:09 AM MST 7:02 PM MST
Astronomical Twilight 5:40 AM MST 7:30 PM MST
Moon 2:49 AM MST (2/16) 1:16 PM MST (2/16)
Length of Visible Light 11h 55m
Length of Day
11h 06m
Waning Crescent, 28% of the Moon is Illuminated
Feb 16
Waning Crescent
Feb 21
New
Feb 29
First Quarter
Mar 8
Full
Mar 14
Last Quarter

Hourly Weather History & Observations

Time (MST) Temp. Windchill Dew Point Humidity Pressure Visibility Wind Dir Wind Speed Gust Speed Precip Events Conditions
12:56 AM 48.9 °F - 12.0 °F 23% 29.90 in 10.0 mi Variable 5.8 mph - N/A   Clear
1:56 AM 45.0 °F 41.2 °F 15.1 °F 30% 29.89 in 10.0 mi Variable 6.9 mph - N/A   Clear
2:56 AM 43.0 °F - 15.1 °F 32% 29.87 in 10.0 mi Calm Calm - N/A   Clear
3:56 AM 43.0 °F 41.3 °F 14.0 °F 31% 29.88 in 10.0 mi WSW 3.5 mph - N/A   Clear
4:56 AM 41.0 °F 37.1 °F 15.1 °F 35% 29.88 in 10.0 mi North 5.8 mph - N/A   Clear
5:55 AM 41.0 °F - 15.8 °F 36% 29.90 in 10.0 mi Calm Calm - N/A   Mostly Cloudy
6:55 AM 41.0 °F 38.0 °F 15.8 °F 36% 29.91 in 10.0 mi WSW 4.6 mph - N/A   Overcast
7:55 AM 42.8 °F - 17.6 °F 36% 29.94 in 10.0 mi Calm Calm - N/A   Mostly Cloudy
8:55 AM 44.6 °F 43.1 °F 17.6 °F 34% 29.94 in 10.0 mi WNW 3.5 mph - N/A   Mostly Cloudy
9:55 AM 50.0 °F - 17.6 °F 28% 29.93 in 10.0 mi East 11.5 mph - N/A   Mostly Cloudy
10:55 AM 53.6 °F - 17.6 °F 24% 29.93 in 10.0 mi SSW 12.7 mph - N/A   Mostly Cloudy
11:55 AM 55.4 °F - 17.6 °F 23% 29.90 in 10.0 mi South 9.2 mph - N/A   Scattered Clouds
1:55 PM 55.4 °F - 19.4 °F 25% 29.86 in 10.0 mi WSW 5.8 mph 16.1 mph N/A   Mostly Cloudy
2:55 PM 55.4 °F - 21.2 °F 26% 29.87 in 10.0 mi South 10.4 mph 17.3 mph N/A   Mostly Cloudy
3:55 PM 53.6 °F - 23.0 °F 30% 29.88 in 10.0 mi Variable 4.6 mph - N/A   Mostly Cloudy
4:55 PM 53.6 °F - 24.8 °F 33% 29.88 in 10.0 mi SE 12.7 mph - N/A   Mostly Cloudy
5:55 PM 50.0 °F - 26.6 °F 40% 29.90 in 10.0 mi SSE 15.0 mph - N/A   Mostly Cloudy
6:55 PM 46.4 °F 42.9 °F 26.6 °F 46% 29.93 in 10.0 mi SE 6.9 mph - N/A   Mostly Cloudy
7:55 PM 44.6 °F - 26.6 °F 49% 29.94 in 10.0 mi Variable 1.2 mph - N/A   Mostly Cloudy
8:55 PM 44.6 °F 42.2 °F 30.2 °F 57% 29.95 in 10.0 mi Variable 4.6 mph - N/A   Mostly Cloudy
9:55 PM 42.8 °F 40.1 °F 28.4 °F 57% 29.94 in 10.0 mi WSW 4.6 mph - N/A   Mostly Cloudy
10:55 PM 42.8 °F - 30.2 °F 61% 29.91 in 10.0 mi Variable 2.3 mph - N/A   Mostly Cloudy
11:56 PM 41.0 °F 38.0 °F 35.1 °F 79% 29.94 in 10.0 mi WSW 4.6 mph - 0.00 in   Overcast